Domov               UVHVVR             MKGP            O straneh              
ZDRAVSTVENO VARSTVO RASTLIN
  MREŽA AGROMET. POSTAJ
 ► PROGNOSTIČNA OBVESTILA
AGROMETEOROLOŠKI PODATKI -
ARSO
OBVLADOVANJE TVEGANJ ZARADI
NEUGODNIH VREMENSKIH RAZMER
  ► NARAVNE NESREČE
  ► SUŠA/MOČA
  ► NAMAKANJE
  ► ŽLED (gozdarstvo)
KARTOGRAFSKI PRIKAZI
SPLETNE POVEZAVE
PROJEKTI IN PUBLIKACIJE

AGROMETEOROLOŠKA MREŽA: VREMENSKE POSTAJE IN FENOLOŠKA OPAZOVANJA

Pregled podatkov za lokacijo Branik, meteorološka postaja 42394

Pregled senzorjev na lokaciji

ID Ime Zadnja
vrednost
Datum
zadnje
spremembe
Tip
senzorja
2188 Temperatura 2 m (°C) 13,78 °C 15.12.2017 20:00 50YA
2189 Relativna vlaga 2 m (% RH) 100 % RH 15.12.2017 20:00 50YA
2190 Omočenost lista (U) 10 U 15.12.2017 20:00 A730WET
2191 Hitrost vetra (km/h) 2,52 km/h 15.12.2017 20:00 566.2S-176 (200km/h)
2192 Padavine (mm) 0 mm 15.12.2017 20:00 Rain-O-Matic
2193 Smer vetra (°) 75,75 ° 15.12.2017 20:00 566.2S-130

Pregled podatkov zadnjih 24 ur

Zap.
št.
Datum in čas Branik
Hitrost
vetra
Omočenost
lista
Padavine Relativna
vlaga
2
m
Smer
vetra
Temperatura
2
m
0 15.12.2017 20:00 2,52 10 0 100 75,75 13,78
1 15.12.2017 19:30 1,57 10 0 100 79,95 13,58
2 15.12.2017 19:00 1,68 10 0 100 70,85 14,22
3 15.12.2017 18:30 1,64 10 0 100 105,36 14,27
4 15.12.2017 18:00 2,22 10 0,2 100 99,07 14,4
5 15.12.2017 17:30 2,39 10 0,4 100 92,26 14,6
6 15.12.2017 17:00 0,21 10 0,2 100 102,25 14,22
7 15.12.2017 16:30 0,3 10 0,8 100 144,02 14,78
8 15.12.2017 16:00 0,17 10 0,2 100 105,3 14,69
9 15.12.2017 15:30 1,64 10 0 100 76,69 14,98
10 15.12.2017 15:00 0,44 10 0 100 93,75 15
11 15.12.2017 14:30 0,17 10 0 100 163,62 15,18
12 15.12.2017 14:00 0,17 10 0,2 100 163,63 15,22
13 15.12.2017 13:30 0,52 10 0,4 100 147,11 15,45
14 15.12.2017 13:00 0,89 10 0,6 100 177,23 15,61
15 15.12.2017 12:30 1 10 1 99 302,71 15,63
16 15.12.2017 12:00 0,97 10 0,4 97,12 191,69 16,31
17 15.12.2017 11:30 3,69 10 0,4 86,61 261,41 16,74
18 15.12.2017 11:00 4,2 10 0 77,48 271,7 12,57
19 15.12.2017 10:30 1,52 10 0 86,91 128,55 13,19
20 15.12.2017 10:00 1,48 10 0,2 81,02 258,62 16,71
21 15.12.2017 09:30 1,7 10 0 98,68 193,36 14,69
22 15.12.2017 09:00 1,21 10 0 100 155,93 13,78
23 15.12.2017 08:30 0,34 10 0 100 110,35 13,1
24 15.12.2017 08:00 0,23 10 0 100 37,12 13,17
25 15.12.2017 07:30 0,64 10 0 100 147,03 12,79
26 15.12.2017 07:00 0,28 10 0 100 87,39 12,52
27 15.12.2017 06:30 0,59 10 0 100 92,1 12,8
28 15.12.2017 06:00 0,52 10 0 100 84,39 12,48
29 15.12.2017 05:30 0,43 10 0 100 77,96 12,74
30 15.12.2017 05:00 1,54 10 0 100 157,64 9,64
31 15.12.2017 04:30 1,32 10 0 100 100,49 8,22
32 15.12.2017 04:00 2,17 10 0 100 77,24 9,91
33 15.12.2017 03:30 0,3 10 0 100 83,2 8,73
34 15.12.2017 03:00 1,37 10 0 100 67,41 6,96
35 15.12.2017 02:30 2,09 10 0 100 92,45 8,44
36 15.12.2017 02:00 1,89 10 0 100 84,61 12,69
37 15.12.2017 01:30 1,54 10 0 100 79,65 12,04
38 15.12.2017 01:00 1,05 10 0 100 75,24 12,29
39 15.12.2017 00:30 0,17 10 0 100 145,83 11,73
40 15.12.2017 00:00 0,17 10 0 100 255,86 11,81
41 14.12.2017 23:30 0,17 10 0 100 255,86 11,6
42 14.12.2017 23:00 0,17 10 0 100 255,87 11,99
43 14.12.2017 22:30 0,17 10 0 100 255,87 11,93
44 14.12.2017 22:00 0,18 10 0 100 255,25 11,7
45 14.12.2017 21:30 0,18 10 0 100 182,07 11,56
46 14.12.2017 21:00 0,17 10 0 100 189,8 11,7
© 2011 Ministrstvo za kmetijstvo, gozdarstvo in prehrano. Vse pravice pridržane.